contact:dominique.lefevre@mio.osupytheas.fr, maurice.libes@osupytheas.fr, didier.mallarino@osupytheas.fr
Project:EMSO http://www.emso-fr.org/EMSO-France
Depth: 2436.0 m
Title:EMSO Ligure Ouest : Data MII capteur AQUADOPP
Date,Latitude,Longitude,X_East,Y_North,Z_Up,Amplitude_X,Amplitude_Y,Amplitude_Z,Batterie,SoundSpeed,Heading,Pitch,Roll,Pressure,TIS,Speed,Direction
, degrees North, degrees East, m.s-1, m.s-1,m.s-1, 1, 1, 1, Volt, m.s-1, degree, degree, degree, dbar, degree_C, m.s-1, degree
2023-04-07T00:04:03,42.805,6.029,-0.042,0.038,0.001,103.0,105.0,102.0,13.3,1505.2,332.6,-0.7,1.8,2471.278,13.28,0.056,312.1
2023-04-07T00:07:03,42.805,6.029,-0.034,0.048,0.022,103.0,104.0,101.0,13.3,1505.2,325.0,-0.7,1.8,2471.259,13.28,0.058,324.7
2023-04-07T00:10:03,42.805,6.029,-0.012,0.054,0.046,101.0,106.0,101.0,13.4,1505.2,333.9,-0.8,1.8,2471.301,13.29,0.055,347.5
2023-04-07T00:13:03,42.805,6.029,-0.033,0.026,-0.013,102.0,104.0,101.0,13.4,1505.2,325.8,-0.8,1.8,2471.238,13.29,0.042,308.2
2023-04-07T00:16:03,42.805,6.029,-0.04,0.035,-0.001,102.0,105.0,100.0,13.4,1505.2,326.8,-0.8,1.8,2471.295,13.29,0.053,311.2
2023-04-07T00:19:03,42.805,6.029,-0.042,0.047,0.009,103.0,102.0,101.0,13.4,1505.2,336.9,-0.8,1.8,2471.247,13.29,0.063,318.2
2023-04-07T00:22:03,42.805,6.029,-0.033,0.051,-0.015,101.0,105.0,101.0,13.4,1505.2,317.8,-0.8,1.8,2471.218,13.29,0.06,327.1
2023-04-07T00:25:03,42.805,6.029,-0.033,0.046,-0.005,103.0,102.0,100.0,13.4,1505.2,336.0,-0.8,1.8,2471.232,13.29,0.056,324.3
2023-04-07T00:28:03,42.805,6.029,-0.037,0.045,0.019,102.0,104.0,102.0,13.4,1505.2,325.7,-0.8,1.8,2471.265,13.29,0.058,320.6
2023-04-07T00:31:03,42.805,6.029,-0.026,0.056,-0.013,103.0,104.0,101.0,13.3,1505.2,333.0,-0.8,1.8,2471.232,13.29,0.061,335.1
2023-04-07T00:34:03,42.805,6.029,-0.028,0.036,-0.044,104.0,106.0,100.0,13.4,1505.2,326.0,-0.8,1.8,2471.229,13.29,0.045,322.1
2023-04-07T00:37:03,42.805,6.029,-0.039,0.049,0.015,102.0,103.0,101.0,13.3,1505.2,325.8,-0.8,1.8,2471.199,13.29,0.062,321.5
2023-04-07T00:40:03,42.805,6.029,-0.02,0.026,0.02,102.0,103.0,101.0,13.3,1505.2,334.6,-0.8,1.8,2471.229,13.29,0.032,322.4
2023-04-07T00:43:03,42.805,6.029,-0.027,0.059,0.03,103.0,104.0,101.0,13.4,1505.2,335.8,-0.8,1.8,2471.201,13.29,0.064,335.4
2023-04-07T00:46:03,42.805,6.029,-0.042,0.023,-0.019,103.0,104.0,101.0,13.4,1505.2,322.5,-0.8,1.8,2471.207,13.29,0.047,298.7
2023-04-07T00:49:03,42.805,6.029,-0.022,0.047,0.029,102.0,106.0,102.0,13.4,1505.2,334.7,-0.8,1.8,2471.228,13.29,0.051,334.9
2023-04-07T00:52:03,42.805,6.029,-0.018,0.051,0.002,102.0,103.0,101.0,13.4,1505.2,332.9,-0.8,1.8,2471.239,13.29,0.054,340.6
2023-04-07T00:55:03,42.805,6.029,-0.027,0.042,-0.038,104.0,104.0,100.0,13.4,1505.2,327.6,-0.8,1.8,2471.223,13.29,0.049,327.3
2023-04-07T00:58:03,42.805,6.029,-0.018,0.036,-0.024,104.0,103.0,101.0,13.4,1505.2,334.8,-0.7,1.8,2471.208,13.29,0.04,333.4
2023-04-07T01:04:03,42.805,6.029,-0.049,0.01,-0.07,106.0,105.0,102.0,13.4,1505.2,327.9,-0.8,1.8,2471.218,13.28,0.05,281.5
2023-04-07T01:07:03,42.805,6.029,-0.059,0.056,0.016,104.0,106.0,102.0,13.4,1505.2,327.9,-0.8,1.8,2471.209,13.29,0.081,313.5
2023-04-07T01:10:03,42.805,6.029,-0.024,0.028,-0.013,103.0,101.0,102.0,13.3,1505.2,327.6,-0.8,1.8,2471.241,13.29,0.036,319.4
2023-04-07T01:13:03,42.805,6.029,-0.018,0.038,-0.011,104.0,101.0,102.0,13.3,1505.2,326.5,-0.8,1.8,2471.229,13.29,0.042,334.7
2023-04-07T01:16:03,42.805,6.029,-0.041,0.035,0.028,103.0,103.0,101.0,13.4,1505.2,326.5,-0.8,1.8,2471.207,13.29,0.053,310.5
2023-04-07T01:19:03,42.805,6.029,-0.02,0.025,0.002,104.0,104.0,100.0,13.4,1505.2,319.6,-0.8,1.8,2471.181,13.29,0.032,321.3
2023-04-07T01:22:03,42.805,6.029,-0.037,0.036,-0.014,103.0,103.0,101.0,13.4,1505.2,323.1,-0.8,1.8,2471.237,13.29,0.051,314.2
2023-04-07T01:25:03,42.805,6.029,-0.041,0.042,0.015,102.0,105.0,101.0,13.3,1505.2,324.6,-0.7,1.9,2471.248,13.29,0.058,315.7
2023-04-07T01:28:03,42.805,6.029,-0.029,0.033,-0.033,102.0,103.0,102.0,13.4,1505.2,337.3,-0.8,1.8,2471.179,13.29,0.043,318.7
2023-04-07T01:31:03,42.805,6.029,-0.027,0.042,0.012,103.0,104.0,100.0,13.4,1505.2,340.0,-0.8,1.8,2471.175,13.29,0.049,327.3
2023-04-07T01:34:03,42.805,6.029,-0.032,0.041,-0.015,102.0,104.0,101.0,13.4,1505.2,340.9,-0.7,1.8,2471.21,13.29,0.052,322.0
2023-04-07T01:37:03,42.805,6.029,-0.033,0.046,-0.015,102.0,103.0,101.0,13.3,1505.2,326.5,-0.7,1.8,2471.153,13.29,0.056,324.3
2023-04-07T01:40:03,42.805,6.029,-0.034,0.019,-0.004,102.0,103.0,102.0,13.4,1505.2,331.1,-0.8,1.8,2471.178,13.29,0.038,299.2
2023-04-07T01:43:03,42.805,6.029,-0.085,0.035,-0.013,102.0,104.0,101.0,13.4,1505.2,317.4,-0.8,1.8,2471.159,13.29,0.091,292.4
2023-04-07T01:46:03,42.805,6.029,-0.025,0.019,-0.035,103.0,102.0,101.0,13.3,1505.2,336.6,-0.8,1.8,2471.205,13.29,0.031,307.2
2023-04-07T01:49:03,42.805,6.029,-0.038,0.056,-0.006,105.0,104.0,102.0,13.4,1505.2,326.0,-0.8,1.8,2471.18,13.29,0.067,325.8
2023-04-07T01:52:03,42.805,6.029,-0.049,0.064,-0.004,104.0,102.0,100.0,13.4,1505.2,331.5,-0.8,1.9,2471.19,13.29,0.08,322.6
2023-04-07T01:55:03,42.805,6.029,-0.006,0.034,0.003,104.0,103.0,102.0,13.4,1505.2,331.6,-0.7,1.8,2471.164,13.29,0.034,350.0
2023-04-07T01:58:03,42.805,6.029,-0.026,0.036,-0.016,103.0,102.0,100.0,13.4,1505.2,328.5,-0.8,1.8,2471.153,13.29,0.044,324.2
2023-04-07T02:04:03,42.805,6.029,-0.051,0.055,-0.029,102.0,103.0,100.0,13.4,1505.2,334.2,-0.8,1.8,2471.237,13.28,0.075,317.2
2023-04-07T02:07:03,42.805,6.029,-0.021,0.019,-0.025,103.0,103.0,101.0,13.3,1505.2,332.9,-0.8,1.8,2471.227,13.28,0.028,312.1
2023-04-07T02:10:03,42.805,6.029,-0.029,0.052,-0.002,103.0,103.0,101.0,13.4,1505.2,329.3,-0.8,1.8,2471.234,13.29,0.059,330.9
2023-04-07T02:13:03,42.805,6.029,-0.035,0.052,-0.022,104.0,102.0,101.0,13.3,1505.2,337.6,-0.8,1.8,2471.225,13.29,0.062,326.1
2023-04-07T02:16:03,42.805,6.029,-0.028,0.023,0.016,104.0,102.0,101.0,13.3,1505.2,322.9,-0.8,1.8,2471.218,13.29,0.036,309.4
2023-04-07T02:19:03,42.805,6.029,-0.041,0.031,-0.053,103.0,103.0,101.0,13.4,1505.2,331.4,-0.8,1.8,2471.207,13.29,0.051,307.1
2023-04-07T02:22:03,42.805,6.029,-0.03,0.022,-0.019,103.0,103.0,101.0,13.4,1505.2,332.1,-0.8,1.8,2471.199,13.29,0.037,306.3
2023-04-07T02:25:03,42.805,6.029,-0.034,0.032,-0.021,104.0,101.0,102.0,13.4,1505.2,324.8,-0.8,1.8,2471.156,13.29,0.046,313.3
2023-04-07T02:28:03,42.805,6.029,-0.048,0.013,-0.012,104.0,101.0,101.0,13.4,1505.2,324.4,-0.8,1.9,2471.17,13.29,0.049,285.2
2023-04-07T02:31:03,42.805,6.029,-0.021,0.044,-0.004,102.0,104.0,101.0,13.3,1505.2,329.8,-0.8,1.8,2471.175,13.29,0.048,334.5
2023-04-07T02:34:03,42.805,6.029,-0.013,0.039,0.001,103.0,103.0,101.0,13.4,1505.2,341.9,-0.8,1.8,2471.173,13.29,0.041,341.6
2023-04-07T02:37:03,42.805,6.029,-0.038,0.048,0.0,102.0,104.0,101.0,13.4,1505.2,340.9,-0.7,1.8,2471.185,13.29,0.061,321.6
2023-04-07T02:40:03,42.805,6.029,-0.056,0.032,-0.032,103.0,103.0,101.0,13.4,1505.2,324.2,-0.8,1.8,2471.176,13.29,0.064,299.7
2023-04-07T02:43:03,42.805,6.029,-0.032,0.033,-0.013,102.0,102.0,102.0,13.4,1505.2,337.4,-0.8,1.8,2471.156,13.29,0.045,315.9
2023-04-07T02:46:03,42.805,6.029,-0.02,0.035,-0.013,102.0,103.0,101.0,13.3,1505.2,323.8,-0.8,1.8,2471.189,13.29,0.04,330.3
2023-04-07T02:49:03,42.805,6.029,-0.039,0.006,-0.052,103.0,102.0,101.0,13.3,1505.2,321.6,-0.8,1.8,2471.144,13.29,0.039,278.7
2023-04-07T02:52:03,42.805,6.029,-0.036,0.041,-0.035,103.0,104.0,100.0,13.3,1505.2,342.5,-0.8,1.8,2471.171,13.29,0.054,318.7
2023-04-07T02:55:03,42.805,6.029,0.0,0.014,0.011,102.0,102.0,100.0,13.4,1505.2,341.9,-0.8,1.8,2471.17,13.29,0.014,0.0
2023-04-07T02:58:03,42.805,6.029,-0.03,0.033,-0.011,102.0,102.0,102.0,13.4,1505.2,329.6,-0.7,1.8,2471.173,13.29,0.044,317.7
2023-04-07T03:04:03,42.805,6.029,-0.054,0.024,-0.041,103.0,102.0,100.0,13.3,1505.2,336.6,-0.8,1.8,2471.237,13.28,0.059,294.0
2023-04-07T03:07:03,42.805,6.029,-0.049,0.047,0.006,101.0,104.0,101.0,13.3,1505.2,325.8,-0.8,1.8,2471.234,13.28,0.067,313.8
2023-04-07T03:10:03,42.805,6.029,-0.016,0.041,-0.022,103.0,102.0,101.0,13.4,1505.2,342.8,-0.8,1.8,2471.215,13.29,0.044,338.7
2023-04-07T03:13:03,42.805,6.029,-0.03,0.025,-0.024,103.0,102.0,101.0,13.4,1505.2,337.9,-0.8,1.8,2471.212,13.29,0.039,309.8
2023-04-07T03:16:03,42.805,6.029,-0.049,0.036,-0.009,102.0,103.0,100.0,13.4,1505.2,331.5,-0.8,1.8,2471.202,13.29,0.06,306.3
2023-04-07T03:19:03,42.805,6.029,-0.037,0.024,-0.022,103.0,102.0,101.0,13.4,1505.2,317.3,-0.8,1.8,2471.158,13.29,0.044,303.0
2023-04-07T03:22:03,42.805,6.029,-0.033,0.009,-0.04,103.0,103.0,101.0,13.3,1505.2,318.5,-0.7,1.8,2471.176,13.29,0.034,285.3
2023-04-07T03:25:03,42.805,6.029,-0.054,0.031,-0.023,103.0,102.0,101.0,13.3,1505.2,323.4,-0.7,1.8,2471.164,13.29,0.062,299.9
2023-04-07T03:28:03,42.805,6.029,-0.023,0.078,0.018,103.0,103.0,100.0,13.4,1505.2,341.2,-0.7,1.8,2471.218,13.29,0.081,343.6
2023-04-07T03:31:03,42.805,6.029,-0.028,0.041,-0.015,103.0,103.0,101.0,13.4,1505.2,342.8,-0.8,1.9,2471.225,13.29,0.049,325.7
2023-04-07T03:34:03,42.805,6.029,-0.017,0.04,-0.01,101.0,103.0,102.0,13.4,1505.2,334.2,-0.8,1.8,2471.195,13.29,0.043,337.0
2023-04-07T03:37:03,42.805,6.029,-0.018,0.037,-0.014,105.0,102.0,100.0,13.4,1505.2,331.4,-0.8,1.8,2471.191,13.29,0.041,334.1
2023-04-07T03:40:03,42.805,6.029,-0.019,0.017,-0.043,103.0,104.0,101.0,13.4,1505.2,326.5,-0.8,1.8,2471.198,13.29,0.025,311.8
2023-04-07T03:43:03,42.805,6.029,-0.033,0.04,-0.044,102.0,103.0,100.0,13.4,1505.2,334.2,-0.8,1.8,2471.229,13.29,0.051,320.5
2023-04-07T03:46:03,42.805,6.029,-0.028,0.033,-0.026,103.0,103.0,102.0,13.4,1505.2,325.7,-0.8,1.8,2471.228,13.29,0.043,319.7
2023-04-07T03:49:03,42.805,6.029,-0.013,0.03,-0.011,103.0,103.0,101.0,13.3,1505.2,344.4,-0.8,1.8,2471.21,13.29,0.032,336.6
2023-04-07T03:52:03,42.805,6.029,-0.033,0.044,-0.021,104.0,103.0,101.0,13.4,1505.2,332.6,-0.8,1.8,2471.168,13.29,0.055,323.1
2023-04-07T03:55:03,42.805,6.029,-0.013,0.037,-0.015,104.0,103.0,101.0,13.4,1505.2,335.9,-0.8,1.8,2471.197,13.29,0.039,340.6
2023-04-07T03:58:03,42.805,6.029,-0.034,0.036,-0.012,104.0,103.0,100.0,13.3,1505.2,336.3,-0.8,1.8,2471.243,13.29,0.049,316.6
2023-04-07T04:04:03,42.805,6.029,-0.035,0.021,0.006,104.0,104.0,102.0,13.3,1505.2,318.5,-0.7,1.8,2471.282,13.29,0.04,301.0
2023-04-07T04:07:03,42.805,6.029,-0.051,0.029,-0.026,103.0,103.0,102.0,13.4,1505.2,336.8,-0.8,1.8,2471.259,13.29,0.058,299.6
2023-04-07T04:10:03,42.805,6.029,-0.041,0.023,-0.041,103.0,103.0,101.0,13.3,1505.2,325.3,-0.8,1.9,2471.286,13.29,0.047,299.3
2023-04-07T04:13:03,42.805,6.029,-0.021,0.032,-0.023,103.0,103.0,104.0,13.4,1505.2,339.8,-0.8,1.8,2471.276,13.29,0.038,326.7
2023-04-07T04:16:03,42.805,6.029,-0.002,0.015,-0.03,104.0,102.0,101.0,13.4,1505.2,331.4,-0.8,1.8,2471.211,13.29,0.015,352.4
2023-04-07T04:19:03,42.805,6.029,-0.051,0.026,-0.026,103.0,102.0,101.0,13.4,1505.2,322.9,-0.8,1.8,2471.263,13.29,0.057,297.0
2023-04-07T04:22:03,42.805,6.029,-0.025,0.034,-0.031,102.0,103.0,101.0,13.3,1505.2,326.5,-0.7,1.9,2471.262,13.29,0.042,323.7
2023-04-07T04:25:03,42.805,6.029,-0.03,0.029,-0.052,103.0,104.0,102.0,13.4,1505.2,340.6,-0.8,1.8,2471.271,13.29,0.041,314.0
2023-04-07T04:28:03,42.805,6.029,-0.03,0.03,-0.003,103.0,103.0,101.0,13.4,1505.2,323.7,-0.7,1.8,2471.247,13.29,0.042,315.0
2023-04-07T04:31:03,42.805,6.029,-0.024,0.033,0.0,103.0,103.0,101.0,13.4,1505.2,335.6,-0.8,1.8,2471.248,13.29,0.04,324.0
2023-04-07T04:34:03,42.805,6.029,-0.035,0.011,-0.047,103.0,103.0,102.0,13.3,1505.2,325.3,-0.7,1.8,2471.255,13.29,0.036,287.4
2023-04-07T04:37:03,42.805,6.029,-0.034,0.038,-0.015,103.0,103.0,101.0,13.4,1505.2,332.9,-0.8,1.8,2471.24,13.29,0.05,318.2
2023-04-07T04:40:03,42.805,6.029,-0.033,0.035,-0.014,103.0,103.0,102.0,13.3,1505.2,329.0,-0.8,1.8,2471.278,13.29,0.048,316.7
2023-04-07T04:43:03,42.805,6.029,-0.031,0.038,-0.03,105.0,103.0,102.0,13.4,1505.2,336.0,-0.8,1.8,2471.257,13.29,0.049,320.8
2023-04-07T04:46:03,42.805,6.029,-0.031,0.015,-0.029,103.0,103.0,101.0,13.4,1505.2,316.1,-0.8,1.8,2471.224,13.29,0.034,295.8
2023-04-07T04:49:03,42.805,6.029,-0.024,0.036,-0.003,102.0,103.0,102.0,13.3,1505.2,330.9,-0.8,1.8,2471.304,13.29,0.043,326.3
2023-04-07T04:52:03,42.805,6.029,-0.035,0.042,-0.007,103.0,103.0,102.0,13.4,1505.2,325.7,-0.7,1.8,2471.283,13.29,0.054,320.2
2023-04-07T04:55:03,42.805,6.029,-0.028,0.024,-0.06,103.0,102.0,101.0,13.4,1505.2,334.8,-0.8,1.8,2471.279,13.29,0.036,310.6
2023-04-07T04:58:03,42.805,6.029,-0.05,0.024,-0.029,103.0,103.0,101.0,13.4,1505.2,324.7,-0.8,1.8,2471.255,13.29,0.055,295.6
2023-04-07T05:04:03,42.805,6.029,-0.037,0.029,-0.005,104.0,102.0,101.0,13.4,1505.2,335.2,-0.8,1.8,2471.313,13.28,0.047,308.1
2023-04-07T05:07:03,42.805,6.029,-0.015,0.017,-0.027,104.0,102.0,100.0,13.3,1505.2,334.8,-0.8,1.8,2471.345,13.29,0.022,318.6
2023-04-07T05:10:03,42.805,6.029,-0.042,0.007,-0.024,102.0,103.0,102.0,13.4,1505.2,320.5,-0.8,1.8,2471.304,13.29,0.042,279.5
2023-04-07T05:13:03,42.805,6.029,-0.037,0.025,-0.016,103.0,103.0,100.0,13.4,1505.2,335.2,-0.7,1.8,2471.345,13.29,0.044,304.0
2023-04-07T05:16:03,42.805,6.029,-0.027,0.019,-0.03,103.0,102.0,102.0,13.4,1505.2,331.6,-0.8,1.8,2471.293,13.29,0.033,305.1
2023-04-07T05:19:03,42.805,6.029,-0.026,0.031,0.008,105.0,103.0,100.0,13.4,1505.2,329.4,-0.7,1.8,2471.315,13.29,0.04,320.0
2023-04-07T05:22:03,42.805,6.029,-0.027,0.017,-0.036,103.0,102.0,102.0,13.3,1505.2,328.8,-0.8,1.8,2471.314,13.29,0.031,302.2
2023-04-07T05:25:03,42.805,6.029,-0.03,0.011,-0.028,103.0,103.0,101.0,13.4,1505.2,327.5,-0.7,1.8,2471.323,13.29,0.031,290.1
2023-04-07T05:28:03,42.805,6.029,-0.038,0.027,-0.009,103.0,103.0,102.0,13.4,1505.2,325.4,-0.8,1.8,2471.336,13.29,0.046,305.4
2023-04-07T05:31:03,42.805,6.029,-0.043,0.038,0.014,103.0,103.0,101.0,13.4,1505.2,324.8,-0.8,1.8,2471.371,13.29,0.057,311.5
2023-04-07T05:34:03,42.805,6.029,-0.028,0.012,-0.036,104.0,103.0,102.0,13.4,1505.2,319.5,-0.8,1.8,2471.352,13.29,0.03,293.2
2023-04-07T05:37:03,42.805,6.029,-0.027,0.036,-0.014,103.0,102.0,101.0,13.4,1505.2,344.3,-0.7,1.9,2471.313,13.29,0.045,323.1
2023-04-07T05:40:03,42.805,6.029,-0.044,0.031,-0.016,103.0,103.0,102.0,13.4,1505.2,323.6,-0.8,1.8,2471.331,13.29,0.053,305.2
2023-04-07T05:43:03,42.805,6.029,-0.044,0.017,-0.01,102.0,103.0,101.0,13.4,1505.2,323.5,-0.8,1.8,2471.355,13.29,0.047,291.1
2023-04-07T05:46:03,42.805,6.029,-0.038,0.038,-0.001,102.0,103.0,101.0,13.4,1505.2,327.8,-0.8,1.8,2471.326,13.29,0.053,315.0
2023-04-07T05:49:03,42.805,6.029,-0.028,0.012,-0.011,104.0,102.0,101.0,13.4,1505.2,318.5,-0.8,1.8,2471.342,13.29,0.03,293.2
2023-04-07T05:52:03,42.805,6.029,-0.024,0.019,-0.051,101.0,103.0,102.0,13.3,1505.2,319.0,-0.7,1.8,2471.324,13.29,0.03,308.4
2023-04-07T05:55:03,42.805,6.029,-0.042,0.022,-0.023,102.0,104.0,103.0,13.4,1505.2,321.4,-0.7,1.8,2471.38,13.29,0.047,297.6
2023-04-07T05:58:03,42.805,6.029,-0.014,0.033,-0.018,104.0,102.0,102.0,13.3,1505.2,334.6,-0.8,1.8,2471.343,13.29,0.035,337.0
2023-04-07T06:04:03,42.805,6.029,-0.028,0.019,-0.012,102.0,103.0,102.0,13.3,1505.2,321.4,-0.8,1.8,2471.385,13.28,0.033,304.2
2023-04-07T06:07:03,42.805,6.029,-0.015,0.009,-0.06,104.0,101.0,102.0,13.4,1505.2,330.6,-0.7,1.8,2471.374,13.29,0.017,301.0
2023-04-07T06:10:03,42.805,6.029,-0.038,0.024,-0.013,104.0,101.0,102.0,13.4,1505.2,331.0,-0.8,1.8,2471.399,13.29,0.044,302.3
2023-04-07T06:13:03,42.805,6.029,-0.02,0.036,-0.037,102.0,103.0,103.0,13.4,1505.2,339.5,-0.8,1.9,2471.372,13.29,0.041,330.9
2023-04-07T06:16:03,42.805,6.029,-0.036,0.027,-0.014,103.0,103.0,101.0,13.4,1505.2,319.0,-0.7,1.8,2471.387,13.29,0.045,306.9
2023-04-07T06:19:03,42.805,6.029,-0.003,0.028,0.02,103.0,103.0,101.0,13.4,1505.2,333.9,-0.8,1.8,2471.351,13.29,0.028,353.9
2023-04-07T06:22:03,42.805,6.029,-0.025,0.022,0.002,103.0,103.0,101.0,13.3,1505.2,341.9,-0.8,1.9,2471.392,13.29,0.033,311.3
2023-04-07T06:25:03,42.805,6.029,-0.03,0.016,-0.048,103.0,104.0,101.0,13.3,1505.2,343.9,-0.8,1.8,2471.404,13.29,0.034,298.1
2023-04-07T06:28:03,42.805,6.029,-0.024,0.019,-0.006,103.0,102.0,102.0,13.4,1505.2,322.0,-0.7,1.8,2471.393,13.29,0.03,308.4
2023-04-07T06:31:03,42.805,6.029,-0.04,0.025,-0.034,103.0,103.0,101.0,13.4,1505.2,327.6,-0.8,1.8,2471.402,13.29,0.047,302.0
2023-04-07T06:34:03,42.805,6.029,-0.048,0.012,-0.024,103.0,102.0,102.0,13.4,1505.2,340.8,-0.8,1.8,2471.412,13.29,0.049,284.0
2023-04-07T06:37:03,42.805,6.029,-0.02,0.018,0.0,103.0,102.0,101.0,13.4,1505.2,324.6,-0.8,1.8,2471.402,13.29,0.026,312.0
2023-04-07T06:40:03,42.805,6.029,-0.046,0.036,-0.007,103.0,102.0,102.0,13.4,1505.2,332.4,-0.8,1.8,2471.387,13.29,0.058,308.0
2023-04-07T06:43:03,42.805,6.029,-0.022,0.019,-0.02,103.0,102.0,101.0,13.4,1505.2,326.0,-0.8,1.9,2471.382,13.29,0.029,310.8
2023-04-07T06:46:03,42.805,6.029,-0.022,0.013,-0.034,104.0,101.0,101.0,13.3,1505.2,318.6,-0.7,1.8,2471.353,13.29,0.025,300.6
2023-04-07T06:49:03,42.805,6.029,-0.023,0.001,-0.031,102.0,103.0,101.0,13.4,1505.2,320.1,-0.8,1.8,2471.416,13.29,0.023,272.5
2023-04-07T06:52:03,42.805,6.029,-0.029,0.031,-0.008,104.0,102.0,102.0,13.4,1505.2,335.2,-0.8,1.8,2471.382,13.29,0.042,316.9
2023-04-07T06:55:03,42.805,6.029,-0.044,0.015,-0.045,101.0,102.0,101.0,13.4,1505.2,324.7,-0.8,1.8,2471.376,13.29,0.046,288.8
2023-04-07T06:58:03,42.805,6.029,-0.023,-0.005,-0.032,101.0,104.0,107.0,13.4,1505.2,327.5,-0.8,1.8,2471.391,13.29,0.023,257.7
2023-04-07T07:04:03,42.805,6.029,-0.022,0.018,-0.003,103.0,102.0,101.0,13.4,1505.2,340.8,-0.8,1.8,2471.437,13.29,0.028,309.3
2023-04-07T07:07:03,42.805,6.029,-0.033,0.016,-0.046,103.0,103.0,101.0,13.4,1505.2,333.8,-0.8,1.8,2471.444,13.29,0.036,295.9
2023-04-07T07:10:03,42.805,6.029,-0.015,0.01,0.006,103.0,102.0,102.0,13.4,1505.2,323.1,-0.8,1.9,2471.441,13.29,0.018,303.7
2023-04-07T07:13:03,42.805,6.029,-0.005,0.016,-0.017,103.0,103.0,100.0,13.4,1505.2,320.7,-0.8,1.8,2471.426,13.29,0.016,342.6
2023-04-07T07:16:03,42.805,6.029,-0.037,0.014,-0.05,102.0,103.0,101.0,13.4,1505.2,324.3,-0.8,1.8,2471.414,13.29,0.039,290.7
2023-04-07T07:19:03,42.805,6.029,-0.02,0.016,-0.025,103.0,103.0,101.0,13.3,1505.2,334.4,-0.7,1.8,2471.416,13.29,0.025,308.7
2023-04-07T07:22:03,42.805,6.029,-0.037,0.026,-0.02,103.0,102.0,101.0,13.4,1505.2,332.4,-0.8,1.8,2471.432,13.29,0.045,305.1
2023-04-07T07:25:03,42.805,6.029,-0.033,0.032,-0.017,103.0,102.0,101.0,13.4,1505.2,331.9,-0.8,1.8,2471.387,13.29,0.045,314.1
2023-04-07T07:28:03,42.805,6.029,-0.029,0.022,-0.007,101.0,102.0,101.0,13.3,1505.2,338.8,-0.8,1.8,2471.372,13.29,0.036,307.2
2023-04-07T07:31:03,42.805,6.029,-0.008,0.01,-0.005,104.0,103.0,100.0,13.3,1505.2,342.8,-0.7,1.9,2471.404,13.29,0.012,321.3
2023-04-07T07:34:03,42.805,6.029,-0.03,0.023,-0.026,102.0,102.0,102.0,13.3,1505.2,332.9,-0.8,1.9,2471.383,13.29,0.037,307.5
2023-04-07T07:37:03,42.805,6.029,-0.025,0.019,-0.016,102.0,102.0,101.0,13.4,1505.2,338.4,-0.7,1.8,2471.417,13.29,0.031,307.2
2023-04-07T07:40:03,42.805,6.029,-0.034,0.011,-0.038,102.0,102.0,101.0,13.3,1505.2,340.5,-0.8,1.8,2471.42,13.29,0.035,287.9
2023-04-07T07:43:03,42.805,6.029,-0.008,0.02,-0.028,102.0,102.0,101.0,13.3,1505.2,344.4,-0.8,1.8,2471.387,13.29,0.021,338.2
2023-04-07T07:46:03,42.805,6.029,-0.017,0.025,-0.018,102.0,103.0,101.0,13.3,1505.2,337.3,-0.7,1.8,2471.382,13.29,0.03,325.8
2023-04-07T07:49:03,42.805,6.029,-0.024,0.012,-0.001,103.0,102.0,101.0,13.4,1505.2,323.7,-0.8,1.8,2471.371,13.29,0.026,296.6
2023-04-07T07:52:03,42.805,6.029,-0.028,0.004,-0.011,103.0,102.0,102.0,13.4,1505.2,317.5,-0.8,1.8,2471.399,13.29,0.028,278.1
2023-04-07T07:55:03,42.805,6.029,-0.029,0.026,-0.035,103.0,102.0,101.0,13.4,1505.2,316.2,-0.8,1.8,2471.375,13.29,0.038,311.9
2023-04-07T07:58:03,42.805,6.029,-0.056,0.02,-0.034,103.0,102.0,102.0,13.3,1505.2,334.3,-0.8,1.8,2471.394,13.29,0.059,289.6
2023-04-07T08:04:03,42.805,6.029,-0.043,0.011,-0.027,104.0,102.0,101.0,13.3,1505.2,333.4,-0.8,1.8,2471.462,13.28,0.044,284.3
2023-04-07T08:07:03,42.805,6.029,-0.024,0.025,-0.011,103.0,102.0,102.0,13.3,1505.2,327.5,-0.7,1.8,2471.425,13.29,0.034,316.2
2023-04-07T08:10:03,42.805,6.029,-0.028,0.004,-0.04,104.0,103.0,101.0,13.4,1505.2,318.2,-0.8,1.8,2471.42,13.29,0.028,278.1
2023-04-07T08:13:03,42.805,6.029,-0.04,-0.001,-0.037,104.0,103.0,102.0,13.4,1505.2,317.4,-0.8,1.8,2471.421,13.29,0.04,268.6
2023-04-07T08:16:03,42.805,6.029,-0.012,0.013,0.0,103.0,103.0,102.0,13.4,1505.2,325.7,-0.8,1.8,2471.432,13.29,0.017,317.3
2023-04-07T08:19:03,42.805,6.029,-0.035,0.007,-0.06,103.0,103.0,102.0,13.4,1505.2,327.0,-0.7,1.8,2471.389,13.29,0.035,281.3
2023-04-07T08:22:03,42.805,6.029,-0.014,0.005,-0.007,103.0,102.0,103.0,13.4,1505.2,336.8,-0.8,1.8,2471.413,13.29,0.014,289.6
2023-04-07T08:25:03,42.805,6.029,-0.007,0.006,-0.02,104.0,104.0,101.0,13.3,1505.2,343.4,-0.8,1.8,2471.345,13.29,0.009,310.6
2023-04-07T08:28:03,42.805,6.029,-0.027,-0.005,0.008,103.0,103.0,102.0,13.4,1505.2,316.2,-0.8,1.8,2471.388,13.29,0.027,259.5
2023-04-07T08:31:03,42.805,6.029,-0.027,0.007,-0.056,102.0,103.0,101.0,13.4,1505.2,334.6,-0.7,1.8,2471.395,13.29,0.027,284.5
2023-04-07T08:34:03,42.805,6.029,-0.016,-0.02,-0.017,104.0,103.0,102.0,13.4,1505.2,322.2,-0.7,1.8,2471.405,13.29,0.025,218.7
2023-04-07T08:37:03,42.805,6.029,-0.044,0.034,0.0,103.0,104.0,102.0,13.4,1505.2,321.7,-0.8,1.8,2471.39,13.29,0.055,307.7
2023-04-07T08:40:03,42.805,6.029,-0.04,0.02,-0.012,103.0,102.0,102.0,13.4,1505.2,335.9,-0.8,1.8,2471.389,13.29,0.044,296.6
2023-04-07T08:43:03,42.805,6.029,-0.03,-0.008,-0.027,103.0,103.0,102.0,13.4,1505.2,323.7,-0.8,1.8,2471.355,13.29,0.031,255.1
2023-04-07T08:46:03,42.805,6.029,-0.061,0.0,-0.019,103.0,102.0,103.0,13.4,1505.2,317.3,-0.8,1.8,2471.33,13.29,0.06,270.0
2023-04-07T08:49:03,42.805,6.029,-0.053,0.002,-0.042,102.0,102.0,103.0,13.3,1505.2,329.1,-0.8,1.8,2471.392,13.29,0.053,272.2
2023-04-07T08:52:03,42.805,6.029,-0.005,0.004,-0.025,103.0,102.0,101.0,13.4,1505.2,341.2,-0.7,1.8,2471.37,13.29,0.006,308.7
2023-04-07T08:55:03,42.805,6.029,-0.009,0.014,-0.048,104.0,102.0,103.0,13.4,1505.2,342.5,-0.7,1.8,2471.376,13.29,0.016,327.3
2023-04-07T08:58:03,42.805,6.029,-0.048,0.023,-0.02,102.0,102.0,102.0,13.3,1505.2,326.5,-0.8,1.8,2471.354,13.29,0.053,295.6
2023-04-07T09:04:03,42.805,6.029,-0.048,0.031,-0.03,103.0,102.0,101.0,13.3,1505.2,339.7,-0.8,1.8,2471.411,13.28,0.057,302.9
2023-04-07T09:07:03,42.805,6.029,-0.029,0.007,-0.052,103.0,102.0,102.0,13.4,1505.2,343.3,-0.8,1.8,2471.417,13.28,0.029,283.6
2023-04-07T09:10:03,42.805,6.029,-0.04,0.008,-0.039,102.0,103.0,101.0,13.4,1505.2,343.9,-0.8,1.8,2471.438,13.29,0.04,281.3
2023-04-07T09:13:03,42.805,6.029,-0.038,0.026,-0.033,103.0,101.0,101.0,13.4,1505.2,331.9,-0.8,1.8,2471.401,13.29,0.046,304.4
2023-04-07T09:16:03,42.805,6.029,-0.044,0.008,-0.025,104.0,104.0,100.0,13.4,1505.2,325.6,-0.8,1.8,2471.353,13.29,0.044,280.3
2023-04-07T09:19:03,42.805,6.029,-0.037,0.036,-0.011,103.0,102.0,101.0,13.4,1505.2,344.9,-0.8,1.8,2471.366,13.29,0.051,314.2
2023-04-07T09:22:03,42.805,6.029,-0.031,0.02,-0.039,102.0,102.0,101.0,13.3,1505.2,330.7,-0.8,1.8,2471.354,13.29,0.036,302.8
2023-04-07T09:25:03,42.805,6.029,-0.036,0.015,-0.033,104.0,101.0,102.0,13.4,1505.2,317.5,-0.8,1.8,2471.328,13.29,0.039,292.6
2023-04-07T09:28:03,42.805,6.029,-0.071,0.015,-0.035,102.0,103.0,101.0,13.3,1505.2,319.4,-0.7,1.8,2471.365,13.29,0.072,281.9
2023-04-07T09:31:03,42.805,6.029,-0.021,0.033,0.0,103.0,104.0,101.0,13.4,1505.2,331.3,-0.8,1.8,2471.38,13.29,0.039,327.5
2023-04-07T09:34:03,42.805,6.029,-0.059,0.011,-0.047,101.0,102.0,102.0,13.4,1505.2,327.1,-0.7,1.8,2471.363,13.29,0.06,280.6
2023-04-07T09:37:03,42.805,6.029,-0.031,0.019,-0.023,104.0,104.0,101.0,13.4,1505.2,328.6,-0.8,1.8,2471.383,13.29,0.036,301.5
2023-04-07T09:40:03,42.805,6.029,-0.041,0.035,-0.01,103.0,103.0,102.0,13.4,1505.2,330.5,-0.8,1.8,2471.329,13.29,0.053,310.5
2023-04-07T09:43:03,42.805,6.029,-0.031,0.022,-0.016,103.0,103.0,103.0,13.4,1505.2,329.5,-0.8,1.8,2471.361,13.29,0.038,305.4
2023-04-07T09:46:03,42.805,6.029,-0.032,0.014,-0.023,104.0,103.0,102.0,13.3,1505.2,322.3,-0.8,1.8,2471.373,13.29,0.034,293.6
2023-04-07T09:49:03,42.805,6.029,-0.04,0.011,-0.023,104.0,101.0,102.0,13.3,1505.2,330.4,-0.8,1.8,2471.384,13.29,0.041,285.4
2023-04-07T09:52:03,42.805,6.029,-0.04,0.015,-0.021,102.0,102.0,101.0,13.3,1505.2,334.6,-0.8,1.8,2471.37,13.29,0.042,290.6
2023-04-07T09:55:03,42.805,6.029,-0.043,0.027,-0.014,103.0,101.0,101.0,13.4,1505.2,326.7,-0.8,1.8,2471.33,13.29,0.05,302.1